Caldwell, NJ

9:33 AM EST on December 05, 2019 (GMT -0500)
Essex County

Weather History for KCDW - June, 2019

Change the Weather History Date:

Sunday, June 2, 2019

  Actual Average Record
Temperature  
Mean Temperature 72 °F -  
Max Temperature 84 °F 78 °F 90 °F (1962)
Min Temperature 63 °F 54 °F 42 °F (1966)
Cooling Degree Days 8    
Growing Degree Days 22 (Base 50)    
Moisture  
Dew Point 58 °F    
Average Humidity 61    
Maximum Humidity 97    
Minimum Humidity 38    
Precipitation  
Precipitation 0.00 in - - ()
Sea Level Pressure  
Sea Level Pressure 29.73 in    
Wind  
Wind Speed 3 mph (West)    
Max Wind Speed 14 mph    
Max Gust Speed 20 mph    
Visibility 9 miles    
Events Rain , Thunderstorm    
Averages and records for this station are not official NWS values.
T = Trace of Precipitation, MM = Missing Value Source: NWS Daily Summary

Daily Weather History Graph

Daily Weather History Graph

Search for Another Location

Airport or City:

Astronomy

Jun. 02, 2019 Rise Set
Actual Time 5:27 AM EDT 8:23 PM EDT
Civil Twilight 4:54 AM EDT 8:56 PM EDT
Nautical Twilight 4:13 AM EDT 9:37 PM EDT
Astronomical Twilight 3:24 AM EDT 10:26 PM EDT
Moon 5:06 AM EDT (6/2) 7:38 PM EDT (6/2)
Length of Visible Light 16h 01m
Length of Day
14h 55m
Waning Crescent, 1% of the Moon is Illuminated
Jun 2
Waning Crescent
Jun 3
New
Jun 10
First Quarter
Jun 17
Full
Jun 25
Last Quarter

Hourly Weather History & Observations

Time (EDT) Temp. Heat Index Dew Point Humidity Pressure Visibility Wind Dir Wind Speed Gust Speed Precip Events Conditions
12:53 AM 70.0 °F - 62.1 °F 76% 29.79 in 10.0 mi Calm Calm - N/A   Clear
1:53 AM 66.9 °F - 63.0 °F 87% 29.76 in 9.0 mi Calm Calm - N/A   Clear
2:53 AM 66.9 °F - 63.0 °F 87% 29.76 in 8.0 mi Calm Calm - N/A   Partly Cloudy
3:53 AM 66.9 °F - 63.0 °F 87% 29.75 in 8.0 mi WNW 4.6 mph - N/A   Mostly Cloudy
4:53 AM 64.0 °F - 62.1 °F 93% 29.74 in 6.0 mi Calm Calm - N/A   Clear
5:53 AM 63.0 °F - 62.1 °F 97% 29.75 in 4.0 mi Calm Calm - N/A   Clear
6:53 AM 64.9 °F - 63.0 °F 93% 29.75 in 7.0 mi Calm Calm - N/A   Clear
7:53 AM 68.0 °F - 62.1 °F 81% 29.76 in 7.0 mi Calm Calm - N/A   Clear
8:53 AM 72.0 °F - 60.1 °F 66% 29.76 in 10.0 mi West 5.8 mph - N/A   Clear
9:53 AM 75.0 °F - 59.0 °F 57% 29.78 in 10.0 mi WSW 6.9 mph - N/A   Clear
10:53 AM 79.0 °F - 57.0 °F 47% 29.77 in 10.0 mi Variable 5.8 mph - N/A   Partly Cloudy
11:53 AM 80.1 °F 80.1 °F 55.0 °F 42% 29.76 in 10.0 mi West 5.8 mph - N/A   Clear
12:53 PM 81.0 °F 80.7 °F 55.0 °F 41% 29.74 in 10.0 mi Variable 4.6 mph - N/A   Clear
1:53 PM 82.9 °F 82.0 °F 55.0 °F 38% 29.71 in 10.0 mi Variable 5.8 mph - N/A   Clear
2:53 PM 82.9 °F 82.1 °F 55.9 °F 39% 29.69 in 10.0 mi West 8.1 mph - N/A   Partly Cloudy
3:53 PM 82.0 °F 81.4 °F 55.0 °F 39% 29.67 in 10.0 mi SW 13.8 mph 19.6 mph N/A   Scattered Clouds
4:53 PM 82.0 °F 81.6 °F 55.9 °F 41% 29.67 in 10.0 mi WNW 10.4 mph - N/A   Mostly Cloudy
5:25 PM 82.0 °F 81.7 °F 57.0 °F 42% 29.63 in 10.0 mi West 4.6 mph - N/A Thunderstorm Scattered Clouds
5:44 PM 82.9 °F 82.1 °F 55.9 °F 39% 29.64 in 10.0 mi WSW 8.1 mph - N/A   Partly Cloudy
5:53 PM 81.0 °F 81.3 °F 59.0 °F 47% 29.65 in 10.0 mi Variable 5.8 mph - N/A   Scattered Clouds
6:53 PM 80.1 °F 81.1 °F 61.0 °F 52% 29.66 in 10.0 mi WSW 4.6 mph - N/A   Clear
7:53 PM 79.0 °F - 57.0 °F 47% 29.68 in 10.0 mi Variable 3.5 mph - N/A   Clear
8:53 PM 77.0 °F - 57.9 °F 52% 29.69 in 10.0 mi Variable 3.5 mph - N/A   Partly Cloudy
9:40 PM 69.1 °F - 59.0 °F 70% 29.73 in 10.0 mi NNW 6.9 mph - 0.00 in Rain , Thunderstorm Light Rain
9:53 PM 68.0 °F - 59.0 °F 73% 29.76 in 10.0 mi Variable 6.9 mph - 0.00 in Rain , Thunderstorm Light Rain
10:53 PM 66.0 °F - 54.0 °F 65% 29.78 in 10.0 mi NNW 5.8 mph - 0.00 in   Overcast
11:53 PM 64.9 °F - 48.0 °F 54% 29.80 in 10.0 mi NNW 9.2 mph - N/A   Overcast